Time,TemperatureF,DewpointF,PressureIn,WindDirection,WindDirectionDegrees,WindSpeedMPH,WindSpeedGustMPH,Humidity,HourlyPrecipIn,Conditions,Clouds,dailyrainin,SoftwareType,DateUTC
2013-02-19 00:02:00,26.0,25.0,-100.00,North,355,0.0,0.0,99,-99.99,,,-99.99,,2013-02-19 06:02:00,
2013-02-19 00:22:00,22.0,22.0,-100.00,North,355,0.0,0.0,99,-99.99,,,-99.99,,2013-02-19 06:22:00,
2013-02-19 00:33:00,22.0,22.0,-100.00,North,355,0.0,0.0,99,-99.99,,,-99.99,,2013-02-19 06:33:00,
2013-02-19 00:42:00,22.0,22.0,-100.00,North,355,0.0,0.0,99,-99.99,,,-99.99,,2013-02-19 06:42:00,
2013-02-19 00:52:00,22.0,22.0,-100.00,North,355,0.0,0.0,99,-99.99,,,-99.99,,2013-02-19 06:52:00,
2013-02-19 01:01:00,22.0,22.0,-100.00,North,355,0.0,0.0,99,-99.99,,,-99.99,,2013-02-19 07:01:00,
2013-02-19 01:22:00,19.0,19.0,-100.00,North,355,0.0,0.0,99,-99.99,,,-99.99,,2013-02-19 07:22:00,
2013-02-19 01:32:00,19.0,19.0,-100.00,North,355,0.0,0.0,99,-99.99,,,-99.99,,2013-02-19 07:32:00,
2013-02-19 01:42:00,19.0,19.0,-100.00,North,355,0.0,0.0,99,-99.99,,,-99.99,,2013-02-19 07:42:00,
2013-02-19 01:52:00,19.0,19.0,-100.00,North,355,0.0,0.0,99,-99.99,,,-99.99,,2013-02-19 07:52:00,
2013-02-19 02:02:00,19.0,19.0,-100.00,North,355,0.0,0.0,99,-99.99,,,-99.99,,2013-02-19 08:02:00,
2013-02-19 02:22:00,17.0,17.0,-100.00,North,355,0.0,0.0,99,-99.99,,,-99.99,,2013-02-19 08:22:00,
2013-02-19 02:32:00,17.0,17.0,-100.00,North,355,0.0,0.0,99,-99.99,,,-99.99,,2013-02-19 08:32:00,
2013-02-19 02:42:00,17.0,17.0,-100.00,North,355,0.0,0.0,99,-99.99,,,-99.99,,2013-02-19 08:42:00,
2013-02-19 02:52:00,17.0,17.0,-100.00,North,355,0.0,0.0,99,-99.99,,,-99.99,,2013-02-19 08:52:00,
2013-02-19 03:01:00,17.0,17.0,-100.00,North,355,0.0,0.0,99,-99.99,,,-99.99,,2013-02-19 09:01:00,
2013-02-19 04:22:00,14.0,14.0,-100.00,North,355,0.0,0.0,99,-99.99,,,-99.99,,2013-02-19 10:22:00,
2013-02-19 04:32:00,14.0,14.0,-100.00,North,355,0.0,0.0,99,-99.99,,,-99.99,,2013-02-19 10:32:00,
2013-02-19 04:42:00,14.0,14.0,-100.00,North,355,0.0,0.0,99,-99.99,,,-99.99,,2013-02-19 10:42:00,
2013-02-19 04:52:00,14.0,14.0,-100.00,North,355,0.0,0.0,99,-99.99,,,-99.99,,2013-02-19 10:52:00,
2013-02-19 05:01:00,14.0,14.0,-100.00,North,355,0.0,0.0,99,-99.99,,,-99.99,,2013-02-19 11:01:00,
2013-02-19 05:32:00,12.0,12.0,-100.00,North,355,0.0,0.0,99,-99.99,,,-99.99,,2013-02-19 11:32:00,
2013-02-19 05:42:00,12.0,12.0,-100.00,North,355,0.0,0.0,99,-99.99,,,-99.99,,2013-02-19 11:42:00,
2013-02-19 05:52:00,12.0,12.0,-100.00,North,355,0.0,0.0,99,-99.99,,,-99.99,,2013-02-19 11:52:00,
2013-02-19 06:01:00,12.0,12.0,-100.00,North,355,0.0,0.0,99,-99.99,,,-99.99,,2013-02-19 12:01:00,
2013-02-19 06:22:00,11.0,11.0,-100.00,North,355,0.0,0.0,99,-99.99,,,-99.99,,2013-02-19 12:22:00,
2013-02-19 06:32:00,11.0,11.0,-100.00,North,355,0.0,0.0,99,-99.99,,,-99.99,,2013-02-19 12:32:00,
2013-02-19 06:42:00,11.0,11.0,-100.00,North,355,0.0,0.0,99,-99.99,,,-99.99,,2013-02-19 12:42:00,
2013-02-19 06:52:00,11.0,11.0,-100.00,North,355,0.0,0.0,99,-99.99,,,-99.99,,2013-02-19 12:52:00,
2013-02-19 07:02:00,11.0,11.0,-100.00,North,355,0.0,0.0,99,-99.99,,,-99.99,,2013-02-19 13:02:00,
2013-02-19 07:22:00,11.0,11.0,-100.00,North,355,0.0,0.0,99,-99.99,,,-99.99,,2013-02-19 13:22:00,
2013-02-19 07:32:00,11.0,11.0,-100.00,North,355,0.0,0.0,99,-99.99,,,-99.99,,2013-02-19 13:32:00,
2013-02-19 07:42:00,11.0,11.0,-100.00,North,355,0.0,0.0,99,-99.99,,,-99.99,,2013-02-19 13:42:00,
2013-02-19 07:52:00,11.0,11.0,-100.00,North,355,0.0,0.0,99,-99.99,,,-99.99,,2013-02-19 13:52:00,
2013-02-19 08:01:00,11.0,11.0,-100.00,North,355,0.0,0.0,99,-99.99,,,-99.99,,2013-02-19 14:01:00,
2013-02-19 08:33:00,10.0,10.0,-100.00,North,355,0.0,0.0,99,-99.99,,,-99.99,,2013-02-19 14:33:00,
2013-02-19 08:42:00,10.0,10.0,-100.00,North,355,0.0,0.0,99,-99.99,,,-99.99,,2013-02-19 14:42:00,
2013-02-19 08:52:00,10.0,10.0,-100.00,North,355,0.0,0.0,99,-99.99,,,-99.99,,2013-02-19 14:52:00,
2013-02-19 09:01:00,10.0,10.0,-100.00,North,355,0.0,0.0,99,-99.99,,,-99.99,,2013-02-19 15:01:00,
2013-02-19 14:22:00,13.0,12.0,-100.00,North,355,0.0,0.0,96,-99.99,,,-99.99,,2013-02-19 20:22:00,
2013-02-19 14:32:00,13.0,12.0,-100.00,North,355,0.0,0.0,96,-99.99,,,-99.99,,2013-02-19 20:32:00,
2013-02-19 14:42:00,13.0,12.0,-100.00,North,355,0.0,0.0,96,-99.99,,,-99.99,,2013-02-19 20:42:00,
2013-02-19 14:52:00,13.0,12.0,-100.00,North,355,0.0,0.0,96,-99.99,,,-99.99,,2013-02-19 20:52:00,
2013-02-19 15:02:00,13.0,12.0,-100.00,North,355,0.0,0.0,96,-99.99,,,-99.99,,2013-02-19 21:02:00,
2013-02-19 15:21:00,14.0,13.0,-100.00,North,355,0.0,0.0,95,-99.99,,,-99.99,,2013-02-19 21:21:00,
2013-02-19 15:32:00,14.0,13.0,-100.00,North,355,0.0,0.0,95,-99.99,,,-99.99,,2013-02-19 21:32:00,
2013-02-19 15:42:00,14.0,13.0,-100.00,North,355,0.0,0.0,95,-99.99,,,-99.99,,2013-02-19 21:42:00,
2013-02-19 15:52:00,14.0,13.0,-100.00,North,355,0.0,0.0,95,-99.99,,,-99.99,,2013-02-19 21:52:00,
2013-02-19 16:02:00,14.0,13.0,-100.00,North,355,0.0,0.0,95,-99.99,,,-99.99,,2013-02-19 22:02:00,
2013-02-19 16:22:00,14.0,13.0,-100.00,North,355,0.0,0.0,96,-99.99,,,-99.99,,2013-02-19 22:22:00,
2013-02-19 16:32:00,14.0,13.0,-100.00,North,355,0.0,0.0,96,-99.99,,,-99.99,,2013-02-19 22:32:00,
2013-02-19 16:42:00,14.0,13.0,-100.00,North,355,0.0,0.0,96,-99.99,,,-99.99,,2013-02-19 22:42:00,
2013-02-19 16:52:00,14.0,13.0,-100.00,North,355,0.0,0.0,96,-99.99,,,-99.99,,2013-02-19 22:52:00,
2013-02-19 17:01:00,14.0,13.0,-100.00,North,355,0.0,0.0,96,-99.99,,,-99.99,,2013-02-19 23:01:00,
2013-02-19 17:21:00,14.0,13.0,-100.00,North,355,0.0,0.0,96,-99.99,,,-99.99,,2013-02-19 23:21:00,
2013-02-19 17:32:00,14.0,13.0,-100.00,North,355,0.0,0.0,96,-99.99,,,-99.99,,2013-02-19 23:32:00,
2013-02-19 17:42:00,14.0,13.0,-100.00,North,355,0.0,0.0,96,-99.99,,,-99.99,,2013-02-19 23:42:00,
2013-02-19 17:52:00,14.0,13.0,-100.00,North,355,0.0,0.0,96,-99.99,,,-99.99,,2013-02-19 23:52:00,
2013-02-19 18:01:00,14.0,13.0,-100.00,North,355,0.0,0.0,96,-99.99,,,-99.99,,2013-02-20 00:01:00,
2013-02-19 18:22:00,12.0,10.0,-100.00,North,355,0.0,0.0,92,-99.99,,,-99.99,,2013-02-20 00:22:00,
2013-02-19 18:32:00,12.0,10.0,-100.00,North,355,0.0,0.0,92,-99.99,,,-99.99,,2013-02-20 00:32:00,
2013-02-19 18:42:00,12.0,10.0,-100.00,North,355,0.0,0.0,92,-99.99,,,-99.99,,2013-02-20 00:42:00,
2013-02-19 18:52:00,12.0,10.0,-100.00,North,355,0.0,0.0,92,-99.99,,,-99.99,,2013-02-20 00:52:00,
2013-02-19 19:02:00,12.0,10.0,-100.00,North,355,0.0,0.0,92,-99.99,,,-99.99,,2013-02-20 01:02:00,
2013-02-19 19:22:00,11.0,10.0,-100.00,North,355,0.0,0.0,93,-99.99,,,-99.99,,2013-02-20 01:22:00,
2013-02-19 19:32:00,11.0,10.0,-100.00,North,355,0.0,0.0,93,-99.99,,,-99.99,,2013-02-20 01:32:00,
2013-02-19 19:42:00,11.0,10.0,-100.00,North,355,0.0,0.0,93,-99.99,,,-99.99,,2013-02-20 01:42:00,
2013-02-19 19:52:00,11.0,10.0,-100.00,North,355,0.0,0.0,93,-99.99,,,-99.99,,2013-02-20 01:52:00,
2013-02-19 20:01:00,11.0,10.0,-100.00,North,355,0.0,0.0,93,-99.99,,,-99.99,,2013-02-20 02:01:00,
2013-02-19 20:22:00,11.0,9.0,-100.00,North,355,0.0,0.0,94,-99.99,,,-99.99,,2013-02-20 02:22:00,
2013-02-19 20:32:00,11.0,9.0,-100.00,North,355,0.0,0.0,94,-99.99,,,-99.99,,2013-02-20 02:32:00,
2013-02-19 20:42:00,11.0,9.0,-100.00,North,355,0.0,0.0,94,-99.99,,,-99.99,,2013-02-20 02:42:00,
2013-02-19 20:52:00,11.0,9.0,-100.00,North,355,0.0,0.0,94,-99.99,,,-99.99,,2013-02-20 02:52:00,
2013-02-19 21:01:00,11.0,9.0,-100.00,North,355,0.0,0.0,94,-99.99,,,-99.99,,2013-02-20 03:01:00,
2013-02-19 21:22:00,10.0,9.0,-100.00,North,355,0.0,0.0,95,-99.99,,,-99.99,,2013-02-20 03:22:00,
2013-02-19 21:32:00,10.0,9.0,-100.00,North,355,0.0,0.0,95,-99.99,,,-99.99,,2013-02-20 03:32:00,
2013-02-19 21:42:00,10.0,9.0,-100.00,North,355,0.0,0.0,95,-99.99,,,-99.99,,2013-02-20 03:42:00,
2013-02-19 21:52:00,10.0,9.0,-100.00,North,355,0.0,0.0,95,-99.99,,,-99.99,,2013-02-20 03:52:00,
2013-02-19 22:01:00,10.0,9.0,-100.00,North,355,0.0,0.0,95,-99.99,,,-99.99,,2013-02-20 04:01:00,
2013-02-19 22:22:00,9.0,8.0,-100.00,North,355,0.0,0.0,94,-99.99,,,-99.99,,2013-02-20 04:22:00,
2013-02-19 22:32:00,9.0,8.0,-100.00,North,355,0.0,0.0,94,-99.99,,,-99.99,,2013-02-20 04:32:00,
2013-02-19 22:42:00,9.0,8.0,-100.00,North,355,0.0,0.0,94,-99.99,,,-99.99,,2013-02-20 04:42:00,
2013-02-19 22:52:00,9.0,8.0,-100.00,North,355,0.0,0.0,94,-99.99,,,-99.99,,2013-02-20 04:52:00,
2013-02-19 23:02:00,9.0,8.0,-100.00,North,355,0.0,0.0,94,-99.99,,,-99.99,,2013-02-20 05:02:00,
2013-02-19 23:22:00,9.0,8.0,-100.00,North,355,0.0,0.0,95,-99.99,,,-99.99,,2013-02-20 05:22:00,
2013-02-19 23:32:00,9.0,8.0,-100.00,North,355,0.0,0.0,95,-99.99,,,-99.99,,2013-02-20 05:32:00,
2013-02-19 23:43:00,9.0,8.0,-100.00,North,355,0.0,0.0,95,-99.99,,,-99.99,,2013-02-20 05:43:00,
2013-02-19 23:52:00,9.0,8.0,-100.00,North,355,0.0,0.0,95,-99.99,,,-99.99,,2013-02-20 05:52:00,